TimeMDT,TemperatureF,Dew PointF,Humidity,Sea Level PressureIn,VisibilityMPH,Wind Direction,Wind SpeedMPH,Gust SpeedMPH,PrecipitationIn,Events,Conditions,WindDirDegrees,DateUTC
12:53 AM,62.1,15.1,16,29.84,10.0,Calm,Calm,-,N/A,,Clear,0,2012-09-17 06:53:00
1:53 AM,63.0,19.0,18,29.81,10.0,East,4.6,-,N/A,,Clear,90,2012-09-17 07:53:00
2:53 AM,62.1,23.0,22,29.84,10.0,East,6.9,-,N/A,,Clear,90,2012-09-17 08:53:00
3:53 AM,61.0,27.0,27,29.85,10.0,SW,6.9,-,N/A,,Mostly Cloudy,220,2012-09-17 09:53:00
4:53 AM,57.9,27.0,31,29.85,10.0,ENE,13.8,-,N/A,,Partly Cloudy,60,2012-09-17 10:53:00
5:53 AM,57.0,30.0,36,29.88,10.0,West,6.9,-,N/A,,Clear,270,2012-09-17 11:53:00
6:53 AM,55.0,28.0,35,29.92,10.0,Calm,Calm,-,N/A,,Scattered Clouds,0,2012-09-17 12:53:00
7:53 AM,61.0,27.0,27,29.94,10.0,Calm,Calm,-,N/A,,Scattered Clouds,0,2012-09-17 13:53:00
8:53 AM,63.0,36.0,37,30.00,10.0,East,6.9,-,0.00,,Mostly Cloudy,90,2012-09-17 14:53:00
9:53 AM,64.0,39.0,40,29.99,10.0,ESE,6.9,-,0.00,,Mostly Cloudy,120,2012-09-17 15:53:00
10:53 AM,70.0,35.1,28,29.98,10.0,East,8.1,-,N/A,,Scattered Clouds,90,2012-09-17 16:53:00
11:53 AM,73.0,33.1,23,29.96,10.0,Calm,Calm,-,N/A,,Scattered Clouds,0,2012-09-17 17:53:00
12:53 PM,73.9,32.0,21,29.94,10.0,South,3.5,-,N/A,,Scattered Clouds,180,2012-09-17 18:53:00
1:53 PM,75.9,30.0,19,29.91,10.0,WSW,6.9,-,N/A,,Clear,250,2012-09-17 19:53:00
2:53 PM,79.0,28.0,15,29.88,10.0,West,8.1,-,N/A,,Clear,260,2012-09-17 20:53:00
3:53 PM,79.0,27.0,15,29.87,10.0,Variable,4.6,-,N/A,,Clear,0,2012-09-17 21:53:00
4:53 PM,79.0,25.0,14,29.87,10.0,Calm,Calm,-,N/A,,Clear,0,2012-09-17 22:53:00
5:53 PM,79.0,23.0,13,29.87,10.0,South,3.5,-,N/A,,Clear,170,2012-09-17 23:53:00
6:53 PM,77.0,27.0,16,29.88,10.0,SSW,3.5,-,N/A,,Clear,210,2012-09-18 00:53:00
7:53 PM,70.0,24.1,18,29.90,9.0,Calm,Calm,-,N/A,,Clear,0,2012-09-18 01:53:00
8:53 PM,68.0,25.0,20,29.93,10.0,NNE,10.4,-,N/A,,Clear,30,2012-09-18 02:53:00
9:53 PM,64.9,23.0,20,29.95,10.0,Calm,Calm,-,N/A,,Clear,0,2012-09-18 03:53:00
10:53 PM,66.9,27.0,22,29.94,10.0,South,9.2,-,N/A,,Clear,170,2012-09-18 04:53:00
11:53 PM,62.1,27.0,26,29.97,10.0,East,6.9,-,N/A,,Clear,90,2012-09-18 05:53:00